Sheridan, NY

2:18 AM EDT on September 30, 2016 (GMT -0400)
Chautauqua County-Dunkirk

Weather History for KDKK - September, 2014

Change the Weather History Date:

Tuesday, September 9, 2014

  Actual Average Record
Temperature  
Mean Temperature 69 °F -  
Max Temperature 75 °F 75 °F 96 °F (1959)
Min Temperature 63 °F 57 °F 40 °F (1979)
Cooling Degree Days 4    
Growing Degree Days 19 (Base 50)    
Moisture  
Dew Point 58 °F    
Average Humidity 69    
Maximum Humidity 76    
Minimum Humidity 61    
Precipitation  
Precipitation 0.01 in - - ()
Sea Level Pressure  
Sea Level Pressure 30.10 in    
Wind  
Wind Speed 14 mph (South)    
Max Wind Speed 22 mph    
Max Gust Speed 32 mph    
Visibility 10 miles    
Events      
Averages and records for this station are not official NWS values.
T = Trace of Precipitation, MM = Missing Value Source: NWS Daily Summary

Daily Weather History Graph

Daily Weather History Graph

Search for Another Location

Airport or City:

Trip Planner

Search our weather history database for the weather conditions in past years. The results will help you decide how hot, cold, wet, or windy it might be!

Date:

Astronomy

Sep. 09, 2014 Rise Set
Actual Time 6:50 AM EDT 7:37 PM EDT
Civil Twilight 6:22 AM EDT 8:05 PM EDT
Nautical Twilight 5:48 AM EDT 8:39 PM EDT
Astronomical Twilight 5:13 AM EDT 9:14 PM EDT
Moon 7:53 PM EDT (9/9) 7:26 AM EDT (9/9)
Length of Visible Light 13h 43m
Length of Day
12h 46m
Waxing Gibbous, 99% of the Moon is Illuminated
Sep 9
Waxing Gibbous
Sep 15
Last Quarter
Sep 24
New
Oct 1
First Quarter
Oct 8
Full

Hourly Weather History & Observations

Time (EDT) Temp. Dew Point Humidity Pressure Visibility Wind Dir Wind Speed Gust Speed Precip Events Conditions
1:53 AM 64.9 °F 52.0 °F 63% 30.15 in 10.0 mi SSE 13.8 mph 20.7 mph N/A   Clear
2:53 AM 64.0 °F 53.1 °F 67% 30.14 in 10.0 mi SSE 13.8 mph 23.0 mph N/A   Clear
3:53 AM 63.0 °F 53.1 °F 70% 30.14 in 10.0 mi South 21.9 mph 32.2 mph N/A   Clear
4:53 AM 64.0 °F 53.1 °F 67% 30.14 in 10.0 mi South 20.7 mph 24.2 mph N/A   Mostly Cloudy
5:53 AM 64.0 °F 53.1 °F 67% 30.13 in 10.0 mi South 17.3 mph 24.2 mph N/A   Overcast
6:53 AM 63.0 °F 54.0 °F 72% 30.14 in 10.0 mi SSE 13.8 mph 24.2 mph N/A   Mostly Cloudy
7:53 AM 64.9 °F 54.0 °F 68% 30.14 in 10.0 mi South 20.7 mph 25.3 mph N/A   Overcast
8:53 AM 66.0 °F 57.0 °F 73% 30.15 in 10.0 mi South 15.0 mph 23.0 mph 0.01 in   Scattered Clouds
9:53 AM 69.1 °F 57.9 °F 68% 30.14 in 10.0 mi South 11.5 mph 23.0 mph N/A   Mostly Cloudy
10:53 AM 69.1 °F 57.9 °F 68% 30.14 in 10.0 mi South 13.8 mph 23.0 mph N/A   Overcast
11:53 AM 73.0 °F 59.0 °F 61% 30.12 in 10.0 mi South 9.2 mph - N/A   Scattered Clouds
1:53 PM 75.0 °F 61.0 °F 62% 30.09 in 10.0 mi SSW 9.2 mph - N/A   Overcast
3:53 PM 75.0 °F 62.1 °F 64% 30.06 in 10.0 mi Variable 6.9 mph - N/A   Mostly Cloudy
5:53 PM 75.0 °F 62.1 °F 64% 30.05 in 10.0 mi SSE 9.2 mph - N/A   Clear
6:53 PM 72.0 °F 62.1 °F 71% 30.05 in 10.0 mi SSE 5.8 mph - N/A   Scattered Clouds
7:53 PM 71.1 °F 61.0 °F 70% 30.04 in 10.0 mi SSE 9.2 mph - N/A   Mostly Cloudy
8:53 PM 70.0 °F 60.1 °F 71% 30.04 in 10.0 mi SSE 9.2 mph - N/A   Mostly Cloudy
9:53 PM 68.0 °F 60.1 °F 76% 30.04 in 10.0 mi South 9.2 mph 19.6 mph N/A   Clear
10:53 PM 68.0 °F 59.0 °F 73% 30.06 in 10.0 mi South 12.7 mph 25.3 mph N/A   Mostly Cloudy
11:53 PM 68.0 °F 60.1 °F 76% 30.02 in 10.0 mi South 20.7 mph - N/A   Partly Cloudy